[[{"header":{"parameterUnit":"m.s-1","parameterCategory":1,"la1":30.2991,"la2":30.254,"lo1":-89.0895,"lo2":-89.0444,"dy":0.0017,"dx":0.0017,"nx":28,"ny":28,"refTime":"2023-08-18T21:00:00:Z","depth":0,"parameterNumber":2,"parameterNumberName":"U-component_of_WINDS"},"data":[0,0,0,0,0,0,0,0,0,0,0,0,0,0,0,0,0,0,0,0,0,0,0,0,0,0,0,0,0,0,0,0,0,0,0,0,0,0,0,0,0,0,0,0,0,0,0,0,0,0,0,0,0,0,0,0,0,0,3.5118,3.5119,0,3.5246,3.5247,3.5249,3.5284,3.5284,3.5283,3.5282,3.5415,3.5419,3.5423,0,0,0,0,0,0,0,0,0,0,0,0,0,3.4906,3.491,3.5117,3.5119,3.5121,3.5246,3.5247,3.5249,3.5285,3.5284,3.5283,3.5282,3.5414,3.5419,3.5424,0,0,0,0,0,0,0,0,0,0,0,0,0,3.5013,3.4911,3.5117,3.5153,3.5158,3.5245,3.5247,3.525,3.5285,3.5284,3.5283,3.5282,3.5412,3.5418,3.5424,3.5485,0,0,3.5444,3.5446,0,0,0,0,0,0,0,0,3.5007,3.502,3.5146,3.5151,3.5156,3.5248,3.5222,3.5329,3.5285,3.5237,3.5282,3.5281,3.536,3.5371,3.5397,3.5491,3.5497,3.5444,3.5448,3.5451,3.5453,0,0,0,0,0,0,0,3.4999,3.5015,3.5168,3.5148,3.5154,3.5164,3.5178,3.5242,3.5303,3.5241,3.5244,3.5258,3.5363,3.5391,3.5401,3.5499,3.5444,3.545,3.5454,3.5456,3.5653,3.5654,0,0,0,0,0,0,3.4985,3.5009,3.5164,3.5172,3.5077,3.5169,3.5185,3.522,3.5303,3.5314,3.5259,3.526,3.5381,3.5393,3.5406,3.5484,3.5451,3.5457,3.546,3.5651,3.5653,3.5655,0,0,0,0,0,0,3.4981,3.4999,3.5159,3.5091,3.5112,3.5174,3.5213,3.5223,3.5251,3.5316,3.5328,3.5277,3.5381,3.5397,3.5466,3.5489,3.546,3.5465,3.565,3.5652,3.5654,3.564,0,0,0,0,0,0,3.4974,3.4997,3.5019,3.5091,3.5116,3.5216,3.5214,3.5226,3.5262,3.5263,3.5336,3.5347,3.5381,3.5456,3.5472,3.5497,3.547,3.5648,3.5651,3.5653,3.5639,3.5642,3.5644,0,0,0,0,0,3.4967,3.501,3.502,3.5039,3.5145,3.5217,3.5231,3.5269,3.5263,3.5288,3.533,3.5344,3.5484,3.5463,3.5481,3.5509,3.5647,3.565,3.5653,3.5638,3.5641,3.5644,0,0,0,0,0,0,3.4939,3.502,3.5032,3.51,3.5152,3.5223,3.5254,3.5271,3.5325,3.5325,3.537,3.5386,3.5453,3.5488,3.5463,3.5574,3.5566,3.5573,3.5548,3.5552,3.5554,3.5544,3.5476,0,0,0,0,0,3.4941,3.4991,3.506,3.5113,3.5139,3.5192,3.5224,3.525,3.5305,3.5327,3.5374,3.5427,3.5484,3.552,3.5575,3.5644,3.5662,3.5673,3.5675,3.5677,3.5682,3.5724,3.573,3.5665,3.5665,3.5665,0,0,3.4945,3.4996,3.5025,3.5109,3.5152,3.5205,3.521,3.5265,3.5305,3.5335,3.5403,3.544,3.5503,3.5573,3.5607,3.5605,3.5705,3.5681,3.5682,3.5687,3.5728,3.5734,3.574,3.5667,3.5667,3.5667,0,0,3.498,3.5022,3.5073,3.5116,3.5181,3.5216,3.5229,3.5298,3.5324,3.5393,3.5418,3.5467,3.5562,3.5607,3.5642,3.5697,3.5713,3.5714,3.5727,3.5767,3.5772,3.5777,3.5798,3.5805,3.5719,3.5719,3.5719,0,3.4977,3.5056,3.5096,3.5151,3.5188,3.5219,3.5271,3.5311,3.5391,3.5417,3.5413,3.5535,3.558,3.5662,3.5675,3.5702,3.5719,3.5705,3.5768,3.5773,3.5778,3.5799,3.5807,3.5719,3.5719,3.5719,3.5719,0,3.505,3.5105,3.5138,3.5215,3.5256,3.5309,3.5359,3.5396,3.5418,3.5455,3.5527,3.5582,3.5649,3.5671,3.5693,3.5757,3.5754,3.5759,3.5752,3.5784,3.5804,3.5812,3.5718,3.5718,3.5718,3.5718,0,0,3.5069,3.5169,3.5181,3.5217,3.5292,3.5336,3.5392,3.5458,3.549,3.5545,3.5593,3.5675,3.568,3.572,3.5748,3.5783,3.5826,3.5784,3.5787,3.5791,3.5902,3.5898,3.5906,3.5837,3.5839,3.584,3.5897,0,3.5114,3.5214,3.5253,3.5335,3.5387,3.5419,3.5467,3.552,3.5556,3.5607,3.5648,3.5705,3.5707,3.5732,3.5768,3.5813,3.5849,3.5809,3.5884,3.5886,3.5867,3.5917,3.5912,3.5963,3.5905,3.5906,3.5907,0,3.5179,3.5235,3.5322,3.5393,3.5417,3.5459,3.5525,3.5573,3.5634,3.5658,3.5704,3.573,3.5792,3.5781,3.5867,3.584,3.5873,3.59,3.5903,3.5911,3.5898,3.5927,3.598,3.5988,3.592,3.5919,3.5918,0,3.5186,3.5283,3.5348,3.5378,3.5462,3.5492,3.5529,3.5588,3.5627,3.5684,3.571,3.5774,3.5809,3.5859,3.5903,3.5891,3.5986,3.5979,3.6009,3.6008,3.6027,3.6025,3.6087,3.6048,3.6047,3.6047,3.6047,0,3.5232,3.5284,3.5353,3.5392,3.5453,3.5498,3.5557,3.5596,3.565,3.5699,3.573,3.5776,3.5831,3.5884,3.5919,3.5986,3.6002,3.6024,3.6033,3.6022,3.6019,3.6044,3.6042,3.6049,3.6049,3.6049,3.6048,0,3.5249,3.5297,3.537,3.5445,3.5465,3.5506,3.557,3.5611,3.565,3.5712,3.573,3.5791,3.5856,3.5904,3.5988,3.6012,3.6084,3.6092,3.6063,3.6067,3.6095,3.6092,3.6175,3.6189,3.614,3.614,3.614,0,3.5275,3.5317,3.5396,3.5431,3.5468,3.5524,3.5564,3.5611,3.5652,3.5726,3.5758,3.5825,3.5881,3.5984,3.6036,3.6101,3.6112,3.6137,3.6122,3.6111,3.6114,3.6111,3.6117,3.6139,3.6139,3.6139,3.614,0,3.5318,3.534,3.5396,3.5461,3.5507,3.5561,3.5615,3.5642,3.57,3.5744,3.581,3.5854,3.5941,3.6007,3.6078,3.6117,3.6139,3.6144,3.6155,3.6144,3.6125,3.6137,3.6069,3.6142,3.6142,3.6141,3.6141,3.6141,3.5341,3.538,3.5443,3.5505,3.5551,3.5601,3.5644,3.5688,3.5745,3.5819,3.5844,3.5913,3.5976,3.6073,3.6113,3.6169,3.6169,3.6184,3.6188,3.6191,3.6191,3.6116,3.6182,3.6182,3.6182,3.6182,3.6182,0,3.5386,3.5429,3.5485,3.556,3.5609,3.5625,3.5687,3.5727,3.5788,3.5844,3.5899,3.5977,3.6043,3.6101,3.617,3.6204,3.6216,3.622,3.6219,3.6228,3.6186,3.6171,3.621,3.621,3.621,3.621,3.621,3.621,3.5415,3.5483,3.5513,3.5604,3.5646,3.5714,3.5748,3.5796,3.5841,3.5927,3.5981,3.6019,3.6077,3.6151,3.6213,3.6228,3.6253,3.6255,3.6273,3.6234,3.623,3.6227,3.6213,3.626,3.626,3.631,3.6311,3.6311]},{"header":{"parameterUnit":"m.s-1","parameterCategory":1,"la1":30.2991,"la2":30.254,"lo1":-89.0895,"lo2":-89.0444,"dy":0.0017,"dx":0.0017,"nx":28,"ny":28,"refTime":"2023-08-18T21:00:00:Z","depth":0,"parameterNumber":3,"parameterNumberName":"V-component_of_WINDS"},"data":[0,0,0,0,0,0,0,0,0,0,0,0,0,0,0,0,0,0,0,0,0,0,0,0,0,0,0,0,0,0,0,0,0,0,0,0,0,0,0,0,0,0,0,0,0,0,0,0,0,0,0,0,0,0,0,0,0,0,-1.0827,-1.0827,0,-1.079,-1.079,-1.079,-1.0786,-1.0786,-1.0787,-1.0787,-1.0744,-1.0743,-1.0742,0,0,0,0,0,0,0,0,0,0,0,0,0,-1.089,-1.0889,-1.0827,-1.0826,-1.0826,-1.079,-1.079,-1.0789,-1.0786,-1.0786,-1.0787,-1.0787,-1.0745,-1.0743,-1.0741,0,0,0,0,0,0,0,0,0,0,0,0,0,-1.0859,-1.0889,-1.0827,-1.082,-1.0819,-1.0791,-1.079,-1.0789,-1.0786,-1.0786,-1.0787,-1.0787,-1.0746,-1.0743,-1.0741,-1.0716,0,0,-1.0734,-1.0733,0,0,0,0,0,0,0,0,-1.0861,-1.0857,-1.0821,-1.082,-1.0819,-1.0793,-1.0797,-1.0764,-1.0785,-1.0798,-1.0787,-1.0788,-1.076,-1.0757,-1.0748,-1.0714,-1.0712,-1.0734,-1.0733,-1.0732,-1.0731,0,0,0,0,0,0,0,-1.0863,-1.0858,-1.0812,-1.0821,-1.082,-1.0818,-1.0814,-1.0791,-1.0776,-1.0797,-1.0797,-1.0793,-1.0759,-1.075,-1.0747,-1.0711,-1.0734,-1.0732,-1.0731,-1.073,-1.0656,-1.0655,0,0,0,0,0,0,-1.0867,-1.086,-1.0813,-1.0811,-1.0842,-1.0816,-1.0812,-1.0801,-1.0776,-1.0773,-1.0792,-1.0793,-1.0754,-1.075,-1.0746,-1.0715,-1.0732,-1.073,-1.0728,-1.0656,-1.0656,-1.0655,0,0,0,0,0,0,-1.0868,-1.0863,-1.0815,-1.0836,-1.0829,-1.0814,-1.0802,-1.08,-1.0791,-1.0773,-1.077,-1.0786,-1.0754,-1.0749,-1.0724,-1.0714,-1.0729,-1.0727,-1.0657,-1.0656,-1.0655,-1.0654,0,0,0,0,0,0,-1.087,-1.0863,-1.0854,-1.0836,-1.0828,-1.0795,-1.0802,-1.0799,-1.0788,-1.0788,-1.0766,-1.0763,-1.0754,-1.0727,-1.0722,-1.0711,-1.0725,-1.0658,-1.0657,-1.0655,-1.0655,-1.0653,-1.0652,0,0,0,0,0,-1.0873,-1.0854,-1.0854,-1.0848,-1.0817,-1.0794,-1.079,-1.0782,-1.0787,-1.0777,-1.0766,-1.0764,-1.0716,-1.0725,-1.0718,-1.0707,-1.0658,-1.0657,-1.0656,-1.0655,-1.0653,-1.0652,0,0,0,0,0,0,-1.0869,-1.0851,-1.0851,-1.0826,-1.0812,-1.0794,-1.0781,-1.0779,-1.0762,-1.0763,-1.0752,-1.0747,-1.0723,-1.0712,-1.0722,-1.0682,-1.0688,-1.0685,-1.069,-1.0688,-1.0686,-1.0689,-1.0723,0,0,0,0,0,-1.0866,-1.0851,-1.0835,-1.0814,-1.0808,-1.0796,-1.0785,-1.0781,-1.0765,-1.0759,-1.0745,-1.0729,-1.0711,-1.0698,-1.068,-1.0654,-1.0649,-1.0643,-1.0641,-1.064,-1.0637,-1.0624,-1.0621,-1.065,-1.065,-1.065,0,0,-1.0858,-1.0847,-1.0837,-1.0813,-1.0802,-1.0786,-1.079,-1.0772,-1.076,-1.0755,-1.0732,-1.0722,-1.0703,-1.0677,-1.0665,-1.0668,-1.0629,-1.0638,-1.0637,-1.0635,-1.0622,-1.0619,-1.0617,-1.0649,-1.0649,-1.065,0,0,-1.0836,-1.0826,-1.0808,-1.0797,-1.0781,-1.0774,-1.077,-1.0752,-1.0746,-1.0723,-1.072,-1.0704,-1.0672,-1.0659,-1.0649,-1.0625,-1.0622,-1.0619,-1.061,-1.0597,-1.0595,-1.0593,-1.0585,-1.0582,-1.0617,-1.0617,-1.0617,0,-1.0828,-1.0805,-1.0799,-1.0782,-1.0772,-1.0769,-1.0751,-1.0741,-1.0718,-1.0711,-1.0715,-1.0676,-1.0663,-1.0636,-1.063,-1.0621,-1.0616,-1.0621,-1.0596,-1.0594,-1.0592,-1.0584,-1.0581,-1.0616,-1.0616,-1.0616,-1.0616,0,-1.0796,-1.078,-1.0767,-1.0749,-1.0737,-1.072,-1.0711,-1.07,-1.0696,-1.0689,-1.0665,-1.065,-1.063,-1.0623,-1.0618,-1.0595,-1.0597,-1.0598,-1.0604,-1.0589,-1.0581,-1.0578,-1.0616,-1.0616,-1.0616,-1.0616,0,0,-1.0769,-1.075,-1.0745,-1.0738,-1.0721,-1.0707,-1.069,-1.0672,-1.0663,-1.0648,-1.0633,-1.0608,-1.061,-1.0598,-1.0592,-1.0581,-1.0564,-1.0583,-1.0583,-1.0581,-1.0538,-1.0537,-1.0534,-1.0563,-1.0562,-1.0561,-1.054,0,-1.0746,-1.0716,-1.0712,-1.0685,-1.0671,-1.0669,-1.0654,-1.0642,-1.0634,-1.062,-1.0611,-1.0594,-1.0597,-1.059,-1.0579,-1.0568,-1.0555,-1.057,-1.0548,-1.0547,-1.0553,-1.053,-1.0529,-1.0509,-1.0537,-1.0536,-1.0536,0,-1.0714,-1.0701,-1.0674,-1.0661,-1.0655,-1.0641,-1.0626,-1.0612,-1.0598,-1.0594,-1.0582,-1.0578,-1.056,-1.0567,-1.0541,-1.0551,-1.0542,-1.0536,-1.0535,-1.0532,-1.054,-1.0527,-1.0502,-1.05,-1.0531,-1.0531,-1.0532,0,-1.0698,-1.0674,-1.0655,-1.0648,-1.0632,-1.0623,-1.0616,-1.0603,-1.0593,-1.0579,-1.0572,-1.0556,-1.0546,-1.0533,-1.0525,-1.0531,-1.05,-1.0506,-1.0496,-1.0496,-1.0489,-1.0489,-1.0462,-1.0483,-1.0483,-1.0483,-1.0483,0,-1.0672,-1.0656,-1.0648,-1.0636,-1.0618,-1.0613,-1.0595,-1.0587,-1.0576,-1.0563,-1.056,-1.0547,-1.0537,-1.0523,-1.0516,-1.0497,-1.0492,-1.0488,-1.0486,-1.0488,-1.0489,-1.0482,-1.0483,-1.0482,-1.0482,-1.0482,-1.0482,0,-1.0651,-1.0645,-1.0625,-1.0612,-1.0609,-1.0596,-1.0585,-1.0574,-1.0567,-1.055,-1.0546,-1.0535,-1.0519,-1.051,-1.0488,-1.0483,-1.0462,-1.0461,-1.0467,-1.0466,-1.0456,-1.0458,-1.0424,-1.042,-1.0443,-1.0443,-1.0442,0,-1.0635,-1.0623,-1.061,-1.0602,-1.0595,-1.0581,-1.0572,-1.0567,-1.0557,-1.0542,-1.0532,-1.0516,-1.0503,-1.0476,-1.0465,-1.0449,-1.0448,-1.0437,-1.0445,-1.0448,-1.0448,-1.0449,-1.0448,-1.0436,-1.0436,-1.0435,-1.0435,0,-1.0607,-1.0606,-1.0593,-1.0581,-1.0571,-1.056,-1.0549,-1.0542,-1.0535,-1.0524,-1.0508,-1.0498,-1.0478,-1.0462,-1.0445,-1.0436,-1.0434,-1.0433,-1.043,-1.0432,-1.0436,-1.0434,-1.0463,-1.0434,-1.0434,-1.0434,-1.0434,-1.0434,-1.0588,-1.0578,-1.0568,-1.0555,-1.0547,-1.0538,-1.0527,-1.0521,-1.0508,-1.0492,-1.0489,-1.0473,-1.046,-1.0438,-1.0429,-1.0416,-1.0418,-1.0413,-1.0412,-1.041,-1.0411,-1.0439,-1.0413,-1.0413,-1.0413,-1.0413,-1.0413,0,-1.0561,-1.0555,-1.0544,-1.053,-1.052,-1.0522,-1.051,-1.0501,-1.0487,-1.0477,-1.0465,-1.0447,-1.0432,-1.0421,-1.0406,-1.0397,-1.0396,-1.0393,-1.0394,-1.0392,-1.0409,-1.0414,-1.0395,-1.0395,-1.0395,-1.0395,-1.0395,-1.0395,-1.0546,-1.0529,-1.0527,-1.0507,-1.05,-1.0486,-1.0479,-1.0471,-1.0463,-1.0444,-1.0432,-1.0426,-1.0415,-1.04,-1.0386,-1.0383,-1.0378,-1.0375,-1.0372,-1.0389,-1.039,-1.0392,-1.0397,-1.0374,-1.0374,-1.0356,-1.0356,-1.0356]}]]